Regional Weather Roundup
Issued by NWS Boston, MA

Home | Current Version | Previous Version | Text Only | Print | Product List | Glossary On
Versions: 1 2 3 4 5 6 7 8 9 10 11 12 13 14 15 16 17 18 19 20 21 22 23 24 25 26 27 28 29 30 31 32 33 34 35 36 37 38 39 40 41 42 43 44 45 46 47
000
ASUS41 KBOX 250510
RWRBOX

REGIONAL WEATHER ROUNDUP
NATIONAL WEATHER SERVICE TAUNTON MA
100 AM EDT TUE APR 25 2017

NOTE:  "FAIR" INDICATES FEW OR NO CLOUDS BELOW 12,000 FEET WITH NO
SIGNIFICANT WEATHER AND/OR OBSTRUCTIONS TO VISIBILITY.

MAZALL-250600-
EASTERN MASSACHUSETTS

CITY           SKY/WX    TMP DP  RH WIND       PRES   REMARKS
BOSTON         CLOUDY    50  44  80 E7        30.22R
BEVERLY        CLOUDY    48  43  82 NE3       30.22S
LAWRENCE       CLOUDY    48  44  86 NE6       30.25R
BEDFORD        CLOUDY    50  38  63 CALM      30.21R
BLUE HILL        N/A     50  36  58 E6        30.19S
NORWOOD        CLOUDY    52  40  63 CALM      30.21S
MARSHFIELD     CLOUDY    50  46  87 CALM      30.21S
PLYMOUTH       CLOUDY    50  45  83 CALM      30.20F
TAUNTON        CLOUDY    51  45  79 CALM      30.20S
NEW BEDFORD    CLOUDY    50  47  89 VRB3      30.18F
$$

MAZALL-250600-
CAPE COD AND THE ISLANDS

CITY           SKY/WX    TMP DP  RH WIND       PRES   REMARKS
FALMOUTH       CLOUDY    48  46  93 MISG      30.21S
HYANNIS        CLOUDY    50  46  86 SE8       30.19S
CHATHAM        CLOUDY    49  46  90 SE8       30.22S
PROVINCETOWN   CLOUDY    49  45  86 E5        30.23R
NANTUCKET      CLOUDY    48  44  86 E13       30.20F
MARTHAS VNYRD  CLOUDY    50  47  89 E14       30.19F
$$

MAZALL-250600-
CENTRAL AND WESTERN MASSACHUSETTS

CITY           SKY/WX    TMP DP  RH WIND       PRES   REMARKS
WORCESTER      CLOUDY    51  36  56 E5        30.19S
FITCHBURG      CLOUDY    51  42  71 CALM      30.21R
ORANGE         CLOUDY    47  43  86 CALM      30.19R
SPRINGFIELD    CLOUDY    55  34  45 CALM      30.16S
WESTFIELD      CLOUDY    52  44  74 CALM      30.17S
NORTH ADAMS    MOCLDY    45  38  76 CALM      30.16S
PITTSFIELD     CLOUDY    51  37  58 E3        30.15S
$$

RIZALL-250600-
RHODE ISLAND

CITY           SKY/WX    TMP DP  RH WIND       PRES   REMARKS
PROVIDENCE     CLOUDY    50  47  89 CALM      30.20S
NEWPORT        CLOUDY    50  48  93 SE5       30.18F
BLOCK ISLAND   CLOUDY    48  46  93 E10       30.18S
SMITHFIELD     CLOUDY    49  43  80 E5        30.19S
WESTERLY       CLOUDY    51  48  89 E8        30.18F
$$

CTZALL-250600-
CONNECTICUT

CITY           SKY/WX    TMP DP  RH WIND       PRES   REMARKS
BRADLEY INTL   CLOUDY    55  36  48 CALM      30.18R
HARTFORD       CLOUDY    52  42  69 CALM      30.17S
BRIDGEPORT     CLOUDY    51  44  77 E12       30.16S
DANBURY        CLOUDY    50  39  66 E6        30.16S
GROTON         CLOUDY    51  47  86 E8        30.16F
NEW HAVEN      CLOUDY    51  45  79 E9        30.15F
CHESTER        MOCLDY    50  45  81 E6        30.16S
MERIDEN        CLOUDY    54  40  59 CALM      30.17S
WILLIMANTIC    CLOUDY    54  39  57 CALM      30.18S
OXFORD         CLOUDY    50  34  53 E5        30.16S
$$

MEZ002-015-021-024-NHZ003-005-008-011-012-014-VTZ005-008-250600-
NORTHERN NEW ENGLAND

CITY           SKY/WX    TMP DP  RH WIND       PRES   REMARKS
PORTLAND ME    CLOUDY    45  43  93 E7        30.27S
BANGOR ME      PTCLDY    38  29  70 N5        30.31R
CONCORD NH     PTCLDY    48  40  73 CALM      30.23S
MANCHESTER NH  PTCLDY    48  41  76 NE5       30.22R
NASHUA NH      PTCLDY    50  44  80 E6        30.23R
PORTSMOUTH NH  MOCLDY    45  42  89 N5        30.23S
JAFFREY NH     MOCLDY    45  42  89 CALM      30.20S
KEENE NH       CLEAR     45  40  82 CALM      30.19S
BURLINGTON VT  CLEAR     41  30  65 NW5       30.23S
MT. WASHINGTON MOCLDY    34  30  86 S13         N/A  WCI  25
$$

NYZ052-076-250600-
EASTERN NEW YORK

CITY           SKY/WX    TMP DP  RH WIND       PRES   REMARKS
ALBANY         MOCLDY    48  31  51 N6        30.17F
NEW YORK CITY  CLOUDY    51  46  83 NE13      30.12F
$$

ANZALL-250600-
MARINE OBSERVATIONS

STATION/POSITION TIME  TEMP    WIND        PRES    VSBY  WAVE
                       AIR SEA DIR/SP/G                  HT/PER
                 (UTC) (F)     (DEG/KT/KT) (MB)    (MI)  (FT/S)
BOSTON BUOY      0350   47 46  100/  4/  6 1022.2          2/10
BUZZARDS BAY     0400   49      80/ 13/ 13 1022.6F
NANTUCKET SOUND  0450      48              1022.3F         1/17
MASS BAY-STELLWA 0404   46 45   80/  6/  8 1023.0R         2/10
ISLE OF SHOALS   0400   46      80/ 15/ 16 1023.4R
S OF BLOCK IS    0455      48                N/A           3/10
$$

......................KEY.........................
  SKY/WX - SKY CONDITION/PRESENT WEATHER
  TMP    - TEMPERATURE IN FAHRENHEIT
  DWPT   - DEWPOINT IN FAHRENHEIT
  RH     - RELATIVE HUMIDITY IN PERCENT
  WIND   - DIRECTION AND SPEED IN MPH
  PRES   - MEAN SEA LEVEL PRESSURE IN INCHES OF HG
  WCI    - WIND CHILL INDEX
  VSB    - VISIBILITY IN MILES
  HX     - HEAT INDEX
  TC     - TEMPERATURE IN CELSIUS
  VRB    - VARIABLE WIND DIRECTION
  N/A    - NOT AVAILABLE



USA.gov is the U.S. government's official web portal to all federal, state and local government web resources and services.